EW9741 Weather Reports


Display with metric or nautical units.
time (UTC)temp
F
wind
direction
speed
MPH
gust
MPH
rain 1hr
in
rain 24hr
in
rain mn
in
humidity
%
barometer
mb
20260901003008 84 214 0.0 0.0 0.00 0.00 0.00 68 1016.3
20260901001512 85 214 0.0 0.0 0.00 0.00 0.00 65 1016.2
20260831234501 87 181 0.0 0.0 0.00 0.00 0.00 62 1015.7
20260831233101 87 236 0.0 0.0 0.00 0.00 0.00 61 1015.5
20260831231600 88 194 0.0 0.0 0.00 0.00 0.00 59 1015.4
20260831230055 90 224 0.0 0.0 0.00 0.00 0.00 57 1015.5
20260831224553 90 147 0.0 0.0 0.00 0.00 0.00 56 1015.7
20260831223051 90 206 0.0 0.0 0.00 0.00 0.00 56 1015.9
20260831221548 91 224 0.0 0.0 0.00 0.00 0.00 55 1016.0
20260831220046 91 141 0.0 0.0 0.00 0.00 0.00 53 1016.3
20260831214610 91 300 0.0 0.0 0.00 0.00 0.00 53 1016.3
20260831213039 92 1 0.0 0.0 0.00 0.00 0.00 51 1016.4
20260831211539 92 283 0.0 9.0 0.00 0.00 0.00 50 1016.5
20260831210033 91 323 0.0 1.0 0.00 0.00 0.00 50 1016.7
20260831204533 91 287 0.0 4.0 0.00 0.00 0.00 50 1016.8
20260831203027 91 292 0.0 13.0 0.00 0.00 0.00 50 1016.9
20260831201530 91 271 0.0 0.0 0.00 0.00 0.00 51 1017.0
20260831200035 90 262 0.0 0.0 0.00 0.00 0.00 53 1017.4
20260831194515 89 280 0.0 0.0 0.00 0.00 0.00 54 1017.5
20260831193010 91 268 0.0 9.0 0.00 0.00 0.00 51 1017.6
20260831191505 92 275 0.0 0.0 0.00 0.00 0.00 51 1017.6
20260831190002 91 94 0.0 0.0 0.00 0.00 0.00 52 1017.8
20260831184559 91 154 0.0 9.0 0.00 0.00 0.00 55 1018.0
20260831183101 90 257 0.0 5.0 0.00 0.00 0.00 52 1018.1
20260831181554 90 259 0.0 9.0 0.00 0.00 0.00 56 1018.1
20260831180047 90 259 0.0 10.0 0.00 0.00 0.00 56 1018.3
20260831174544 89 278 0.0 8.0 0.00 0.00 0.00 58 1018.3
20260831173040 90 287 0.0 4.0 0.00 0.00 0.00 57 1018.5
20260831171539 89 281 0.0 7.0 0.00 0.00 0.00 61 1018.5
20260831170032 88 261 0.0 4.0 0.00 0.00 0.00 62 1018.6
20260831164530 88 333 0.0 0.0 0.00 0.00 0.00 63 1018.7
20260831163037 88 359 1.0 12.0 0.00 0.00 0.00 63 1018.9
20260831161519 87 289 0.0 0.0 0.00 0.00 0.00 66 1018.9
20260831160028 86 280 0.0 0.0 0.00 0.00 0.00 65 1018.8
20260831154513 85 300 0.0 0.0 0.00 0.00 0.00 69 1018.8
20260831153008 84 242 0.0 0.0 0.00 0.00 0.00 68 1018.8
20260831151511 84 212 0.0 0.0 0.00 0.00 0.00 69 1018.8
20260831150101 83 209 0.0 0.0 0.00 0.00 0.00 71 1018.8
20260831144557 81 247 0.0 0.0 0.00 0.00 0.00 73 1018.8
20260831143101 80 212 0.0 0.0 0.00 0.00 0.00 76 1018.6
20260831141553 79 208 0.0 0.0 0.00 0.00 0.00 78 1018.5
20260831140044 79 210 0.0 0.0 0.00 0.00 0.00 77 1018.6
20260831134542 79 210 0.0 0.0 0.00 0.00 0.00 78 1018.6
20260831133041 78 208 0.0 0.0 0.00 0.00 0.00 79 1018.6
20260831131542 78 189 0.0 0.0 0.00 0.00 0.00 79 1018.5
20260831130037 78 177 0.0 0.0 0.00 0.00 0.00 79 1018.4
20260831124534 76 146 0.0 0.0 0.00 0.00 0.00 81 1018.3
20260831123022 74 186 0.0 0.0 0.00 0.00 0.00 84 1018.2
20260831121519 73 180 0.0 0.0 0.00 0.00 0.00 85 1018.3
20260831120014 0 0.0 0.0 0.00 0.00 0.00 1018.2
20260831114512 0 0.0 0.0 0.00 0.00 0.00 1018.0
20260831113008 0 0.0 0.0 0.00 0.00 0.00 1017.8
20260831111507 0 0.0 0.0 0.00 0.00 0.00 1017.8
20260831110100 0 0.0 0.0 0.00 0.00 0.00 1017.7
20260831104557 0 0.0 0.0 0.00 0.00 0.00 1017.5
20260831103056 0 0.0 0.0 0.00 0.00 0.00 1017.4
20260831101551 73 181 0.0 0.0 0.00 0.00 0.00 83 1017.3
20260831100049 74 162 0.0 0.0 0.00 0.00 0.00 82 1017.2
20260831094557 74 187 0.0 0.0 0.00 0.00 0.00 81 1017.3
20260831093049 74 173 0.0 0.0 0.00 0.00 0.00 81 1017.3
20260831091550 74 157 0.0 0.0 0.00 0.00 0.00 81 1017.3
20260831090053 74 158 0.0 0.0 0.00 0.00 0.00 81 1017.3
20260831084548 74 158 0.0 0.0 0.00 0.00 0.00 82 1017.1
20260831083049 74 152 0.0 0.0 0.00 0.00 0.00 82 1016.9
20260831081548 73 153 0.0 0.0 0.00 0.00 0.00 84 1016.7
20260831080048 72 149 0.0 0.0 0.00 0.00 0.00 86 1016.8
20260831074547 72 148 0.0 0.0 0.00 0.00 0.00 87 1016.9
20260831073047 72 150 0.0 0.0 0.00 0.00 0.00 87 1016.9
20260831071552 73 146 0.0 0.0 0.00 0.00 0.00 85 1017.0
20260831070047 73 148 0.0 0.0 0.00 0.00 0.00 83 1017.1
20260831064548 73 157 0.0 0.0 0.00 0.00 0.00 85 1017.3
20260831063045 72 159 0.0 0.0 0.00 0.00 0.00 87 1017.5
20260831061546 73 159 0.0 0.0 0.00 0.00 0.00 85 1017.6
20260831060049 72 159 0.0 0.0 0.00 0.00 0.00 86 1017.6
20260831054545 72 159 0.0 0.0 0.00 0.00 0.00 88 1017.7
20260831053045 72 159 0.0 0.0 0.00 0.00 0.00 87 1017.6
20260831051553 73 159 0.0 0.0 0.00 0.00 0.00 87 1017.6
20260831050042 73 159 0.0 0.0 0.00 0.00 0.00 86 1017.5
20260831044542 73 168 0.0 0.0 0.00 0.00 0.00 87 1017.5
20260831043041 73 168 0.0 0.0 0.00 0.00 0.00 87 1017.5
20260831041539 73 168 0.0 0.0 0.00 0.00 0.00 86 1017.6
20260831040039 73 168 0.0 0.0 0.00 0.00 0.00 85 1017.6
20260831034546 73 168 0.0 0.0 0.00 0.00 0.00 85 1017.7
20260831033037 74 168 0.0 0.0 0.00 0.00 0.00 84 1017.7
20260831031537 74 168 0.0 0.0 0.00 0.00 0.00 83 1017.7
20260831030034 75 175 0.0 0.0 0.00 0.00 0.00 81 1017.7
20260831024535 75 175 0.0 0.0 0.00 0.00 0.00 80 1017.7
20260831023030 75 175 0.0 0.0 0.00 0.00 0.00 79 1017.7
20260831021530 76 175 0.0 0.0 0.00 0.00 0.00 78 1017.6
20260831020027 76 175 0.0 0.0 0.00 0.00 0.00 76 1017.6
20260831014529 77 175 0.0 0.0 0.00 0.00 0.00 74 1017.6
20260831013023 78 175 0.0 0.0 0.00 0.00 0.00 71 1017.6
20260831011534 78 175 0.0 0.0 0.00 0.00 0.00 71 1017.4
20260831010018 79 173 0.0 0.0 0.00 0.00 0.00 70 1017.2
20260831004517 79 173 0.0 0.0 0.00 0.00 0.00 70 1017.0